Flag for U.S.A. Weather past 2 weeks in Augusta, Georgia, U.S.A.

Now
73 °F

Mostly cloudy.


Feels Like: 70 °F
Forecast: 72 / 85 °F
Wind: 7 mph from Northeast

Location: Daniel Field

Current Time: Jul 22, 2014 at 4:17:53 AM

Latest Report: Jul 22, 2014 at 3:53 AM


Visibility: 10 mi

Pressure: 30.06 "Hg

Humidity: 94%

Dew point: 71 °F

Location of AugustaLocation

Historic Weather in Augusta — Graph

°F

Augusta temperature yesterday

Maximum temperature yesterday: 89 °F (at 4:53 PM)
Minimum temperature yesterday: 73 °F (at 9:53 PM)
Average temperature yesterday: 79 °F

Past Weeks' High & Low Weather Summary

 TemperatureHumidityPressure
High96 °F (Jul 8, 4:53 PM)97% (Jul 13, 7:53 AM)30.22 "Hg (Jul 13, 7:53 AM)
Low70 °F (Jul 17, 6:53 AM)28% (Jul 9, 4:53 PM)29.82 "Hg (Jul 15, 4:53 PM)
Average81 °F70%30.03 "Hg
* Reported Jul 7 2:53 AM — Jul 22 2:53 AM, Augusta, Weather by CustomWeather, © 2014

Note: Actual official high and low records may vary slightly from our data, if they occured in-between our weather recording intervals... More about our weather records

Advertising

Augusta weather history for previous 24 hours

 ConditionsComfort  
Time TempWeatherWind HumidityBarometerVisibility
2:53 AM
Jul 22
73 °FMostly cloudy.6 mph94%30.07 "Hg10 mi
1:53 AM73 °FPartly cloudy.8 mph97%30.08 "Hg10 mi
1:03 AM74 °FPartly cloudy.7 mph94%30.10 "Hg10 mi
12:53 AM74 °FPartly cloudy.5 mph94%30.09 "Hg10 mi
11:53 PM
Jul 21
74 °FClear.3 mph94%30.09 "Hg10 mi
10:53 PM73 °FPassing clouds.No wind97%30.07 "Hg10 mi
9:53 PM73 °FLight rain. Mostly cloudy.6 mph97%30.10 "Hg7 mi
9:02 PM74 °FRain. Fog.7 mph94%30.14 "Hg6 mi
9:00 PM74 °FRain. Fog.6 mph94%30.14 "Hg6 mi
7:53 PM75 °FLight rain. Cloudy.7 mph94%30.09 "Hg8 mi
6:53 PM79 °FPartly sunny.7 mph79%30.05 "Hg10 mi
6:00 PM81 °FLight rain. Partly sunny.12 mph77%30.03 "Hg10 mi
4:53 PM89 °FMostly cloudy.7 mph55%30.01 "Hg10 mi
3:53 PM88 °FPassing clouds.7 mph57%30.02 "Hg10 mi
2:53 PM87 °FPartly sunny.6 mph59%30.05 "Hg10 mi
1:53 PM87 °FPassing clouds.No wind59%30.06 "Hg10 mi
12:53 PM86 °FScattered clouds.5 mph67%30.06 "Hg10 mi
11:53 AM82 °FPassing clouds.5 mph77%30.10 "Hg10 mi
10:53 AM79 °FOvercast.5 mph82%30.11 "Hg10 mi
9:53 AM79 °FPartly sunny.No wind82%30.09 "Hg10 mi
8:53 AM77 °FPassing clouds.5 mph90%30.08 "Hg7 mi
7:53 AM76 °FFog.3 mph94%30.08 "Hg2 mi
6:53 AM76 °FFog.No wind94%30.06 "Hg4 mi
5:53 AM76 °FFog.3 mph94%30.03 "Hg5 mi
4:53 AM76 °FMostly cloudy.No wind94%30.02 "Hg7 mi
Weather by CustomWeather, © 2014

See weather overviewHow to use our weather pages